Weather in Campos dos Goytacazes

Brazil     21°45′16″S   41°19′27″W
temp.,
°C
wind,
m/s
gust,
m/s
humid.,
%
clouds,
%
prec.,
mm/h
press.,
hPa
HPBL,
m
7 july, thu
thu700:00+20nne512890 0.0 1020410
03:00+17n35930 0.0 102091
06:00+16n33900 0.0 102037
09:00+23nnw34510 0.0 1022349
12:00+29n45320 0.0 10211678
15:00+27ene75470 0.0 1020732
18:00+21ne612850 0.0 1020437
21:00+21ne51082100 0.0 1023360
8 july, fri
fri800:00+21ne5118498 0.0 1022379
03:00+17n34944 0.0 102280
06:00+17n33945 0.0 102240
09:00+23n456233 0.0 1023406
12:00+29n44335 0.0 10221228
15:00+30ene54334 0.0 10201178
18:00+21ne612845 0.0 1022307
21:00+20nne35920 0.0 102399
9 july, sat
sat900:00+19ne22943 0.0 102429
03:00+19nne119615 0.0 102318
06:00+18n1197100 0.0 102313
09:00+23ne4669100 0.0 1025677
12:00+28ne6745100 0.0 10231485
15:00+25ne786394 0.0 1022955
18:00+22ne51180100 0.0 1023668
21:00+20ene38917 0.1 1024292
10 july, sun
sun1000:00+22ne388299 0.0 1024407
03:00+21ene498659 0.0 1023319
06:00+19ne38945 0.0 1023189
09:00+24ne68665 0.0 10241033
12:00+27ene775328 0.0 10221431
15:00+26ene77532 0.0 10201030
18:00+21ene49872 0.0 1021339
21:00+21ene49900 0.0 1021307
11 july, mon
mon1100:00+20ne49900 0.0 1021299
03:00+18nne389312 0.0 1019198
06:00+17n36940 0.0 1020126
09:00+24nne586011 0.0 1021585
12:00+29ne68410 0.0 10181610
15:00+26ene99590 0.0 1016681
18:00+22ne6138412 0.0 1017578
21:00+22ne6138545 0.0 1018535